Location: Berg
(47.2344°N, 9.5296°E)
Time: 17:32:11
(UTC+00:00)

MOS 1 Rocket - Pass Details

Date: 24 January 2021
Orbit: 614 x 830 km, 97.4° (Epoch: 01 March)

Event Time Altitude Azimuth Distance (km) Brightness Sun altitude
Rises 17:00:45 0° 21° (NNE) 2,909 6.1 -8.4°
Reaches altitude 10° 17:03:09 10° 32° (NNE) 1,988 5.2 -8.8°
Maximum altitude 17:07:00 31° 95° (E) 1,082 3.8 -9.4°
Drops below altitude 10° 17:10:49 10° 159° (SSE) 1,982 5.6 -10.0°
Sets 17:13:12 0° 169° (S) 2,898 6.6 -10.4°
